CZ-6A DEB, 56598

Orbit data source: Space-Track

CZ-6A DEB, 56598 is space debris in SSO originally from a launch on Fri, 11 Nov 2022 UTC launched from the Taiyaun Space Center, China (TSC). Debris objects in space refer to the collection of defunct objects orbiting the Earth. Examples of debris include non-operational satellites, rocket bodies, and fragments generated from explosions, collisions, or faulty payload assembly.

Loading next visibility...
Identifier
56598, 2022-151ADW
Orbit
SSO
Country
Flag of CNCN / PRC
Related business
Manufacturer
SAST
Mission
Spacecraft
Bus & Motor
Unknown
Mass
Unknown
Launch date (UTC)
2022-11-11 (4 years ago)
Launch vehicle
Unknown
Launch site
Taiyaun Space Center, China (TSC)
Object type
Payload
Rocket body
Debris
Shape & HBR
Unknown shape, 0.1 m
Radar Cross Section
Small (<0.1 m²)

Expand to show TLE details & history
Last TLE update: 4 days ago

TLE from 4 days ago
0 CZ-6A DEB
1 56598U 22151ADW 26169.78145766  .00000909  00000-0  41918-3 0  9996
2 56598  98.7716 187.7174 0043826 342.1721  17.7917 14.22999238163686
Epoch: 2026-06-18T18:45Z
TLE epoch observation values (Epoch: 2026-06-18T18:45:17.941Z)
Latitude
-0.00007°
Longitude
-0.6272°
Altitude
788.133 km
Speed
7.475 km/s
True Right ascension
12h 30m 52s
True Declination
0° 00' 00"
Sunlit
Object was in daylight at epoch
Visualization orbit readout
Latitude
Unknown
Longitude
Unknown
Altitude
Unknown
Speed
Unknown
Apparent Right ascension
Unknown
Apparent Declination
Unknown
Sunlit
N/A
Visualization observer readout
Local Sidereal Time
21:35:55
Azimuth
Unknown
Elevation
Unknown
Doppler factor
Unknown
Orbital elements
Apogee altitude
843.898 km
Perigee altitude
780.872 km
Semi-major axis
7,190.522 km
Eccentricity
0.00438
Inclination
98.7716°
RAAN
187.7174°
Arg. of periapsis
342.1721°
True anomaly
17.94596°
Mean anomaly
17.7917°
Eccentric anomaly
17.86875°
Mean motion
3.55961 °/min
Orbital period
101.13 mins
BSTAR
0.00041918
Loading maneuver chart data...
Computing Atmospheric mass density...
Loading historical data...
Loading historical data...
Loading historical data...
Loading historical data...
Loading historical data...
Loading historical data...
Loading historical data...

Documentation

Showing up to 5 results
|